Tracking 29932 objects as of 4-Dec-2024
HD Live streaming from Space Station
objects crossing your sky now

STARLINK-32026

Track STARLINK-32026 now!
10-day predictions
STARLINK-32026 is classified as:


NORAD ID: 60098
Int'l Code: 2024-117H
Perigee: 481.6 km
Apogee: 483.0 km
Inclination: 53.2 °
Period: 94.1 minutes
Semi major axis: 6853 km
RCS: Unknown
Launch date: June 23, 2024
Source: United States (US)
Launch site: AIR FORCE EASTERN TEST RANGE (AFETR)
Your satellite tracking list
Your tracking list is empty




NASA's NSSDC Master Catalog

Two Line Element Set (TLE):
1 60098U 24117H   24338.80795404  .00003283  00000-0  12290-3 0  9998
2 60098  53.1573  17.8563 0001018  91.4988 268.6129 15.30207011 26325
Source of the keplerian elements: AFSPC